Weather History for Lafayette, IN

Change the Weather History Date:

Wednesday, September 11, 2013

  Actual Average Record
Temperature  
Mean Temperature 84 °F 68 °F  
Max Temperature 96 °F 80 °F 96 °F (2013)
Min Temperature 71 °F 57 °F 40 °F (1993)
Degree Days  
Heating Degree Days 0 1  
Month to date heating degree days 1 10  
Since 1 July heating degree days 21 16  
Cooling Degree Days 19 4  
Month to date cooling degree days 103 62  
Year to date cooling degree days 829 914  
Growing Degree Days 33 (Base 50)    
Moisture  
Dew Point 65 °F    
Average Humidity 60    
Maximum Humidity 93    
Minimum Humidity 26    
Precipitation  
Precipitation 0.00 in 0.09 in 0.77 in (1986)
Month to date precipitation 0.00 1.00  
Year to date precipitation 27.63 26.55  
Sea Level Pressure  
Sea Level Pressure 30.04 in    
Wind  
Wind Speed 7 mph (WSW)    
Max Wind Speed 18 mph    
Max Gust Speed 26 mph    
Visibility 9 miles    
Events      
T = Trace of Precipitation, MM = Missing Value Source: NWS Daily Summary

Daily Weather History Graph

Daily Weather History Graph

Search for Another Location

Airport:

Trip Planner

Search our weather history database for the weather conditions in past years. The results will help you decide how hot, cold, wet, or windy it might be!

Date:

Astronomy

Sep. 11, 2013 Rise Set
Actual Time 7:24 AM EDT 8:02 PM EDT
Civil Twilight 6:57 AM EDT 8:30 PM EDT
Nautical Twilight 6:24 AM EDT 9:02 PM EDT
Astronomical Twilight 5:51 AM EDT 9:35 PM EDT
Moon 1:53 PM EDT (9/11) 11:57 PM EDT (9/11)
Length of Visible Light 13h 32m
Length of Day
12h 37m
Waxing Crescent, 38% of the Moon is Illuminated
Sep 11
Waxing Crescent
Sep 12
First Quarter
Sep 19
Full
Sep 26
Last Quarter
Oct 4
New

Hourly Weather History & Observations

Time (EDT) Temp. Heat Index Dew Point Humidity Pressure Visibility Wind Dir Wind Speed Gust Speed Precip Events Conditions
12:54 AM 75.0 °F - 69.1 °F 82% 30.07 in 9.0 mi SSW 3.5 mph - N/A   Clear
1:54 AM 73.9 °F - 69.1 °F 85% 30.07 in 9.0 mi South 5.8 mph - N/A   Clear
2:54 AM 73.0 °F - 69.1 °F 87% 30.06 in 10.0 mi Calm Calm - N/A   Clear
3:54 AM 73.9 °F - 68.0 °F 82% 30.06 in 10.0 mi SW 3.5 mph - N/A   Clear
4:54 AM 73.0 °F - 69.1 °F 87% 30.06 in 9.0 mi WSW 4.6 mph - N/A   Clear
5:54 AM 72.0 °F - 69.1 °F 91% 30.06 in 8.0 mi WSW 3.5 mph - N/A   Clear
6:54 AM 72.0 °F - 70.0 °F 93% 30.07 in 6.0 mi WSW 6.9 mph - N/A   Clear
7:54 AM 71.1 °F - 70.0 °F 96% 30.09 in 3.0 mi WSW 3.5 mph - N/A   Clear
8:54 AM 73.9 °F - 71.1 °F 91% 30.10 in 6.0 mi WSW 5.8 mph - N/A   Partly Cloudy
9:54 AM 79.0 °F - 69.1 °F 72% 30.09 in 9.0 mi WSW 9.2 mph - N/A   Clear
10:54 AM 84.9 °F 87.6 °F 66.9 °F 55% 30.09 in 10.0 mi West 10.4 mph - N/A   Clear
11:54 AM 88.0 °F 90.3 °F 66.0 °F 48% 30.07 in 10.0 mi WSW 8.1 mph - N/A   Clear
12:54 PM 93.0 °F 95.0 °F 64.9 °F 39% 30.05 in 10.0 mi Variable 6.9 mph - N/A   Clear
1:54 PM 93.0 °F 94.2 °F 63.0 °F 37% 30.04 in 10.0 mi Variable 5.8 mph - N/A   Partly Cloudy
2:54 PM 93.9 °F 94.0 °F 61.0 °F 33% 30.02 in 10.0 mi West 11.5 mph 18.4 mph N/A   Scattered Clouds
3:54 PM 95.0 °F 94.0 °F 57.9 °F 29% 30.00 in 10.0 mi WSW 15.0 mph 21.9 mph N/A   Scattered Clouds
4:54 PM 95.0 °F 93.4 °F 55.9 °F 27% 29.99 in 10.0 mi WSW 12.7 mph 24.2 mph N/A   Scattered Clouds
5:54 PM 93.9 °F 92.0 °F 55.0 °F 27% 29.98 in 10.0 mi WSW 15.0 mph 26.5 mph N/A   Clear
6:54 PM 91.9 °F 90.6 °F 57.0 °F 31% 29.98 in 10.0 mi West 10.4 mph - N/A   Clear
7:54 PM 86.0 °F 85.7 °F 60.1 °F 41% 29.99 in 10.0 mi WSW 5.8 mph - N/A   Clear
8:54 PM 81.0 °F 81.7 °F 61.0 °F 50% 29.99 in 10.0 mi West 3.5 mph - N/A   Clear
9:54 PM 78.1 °F - 62.1 °F 58% 30.01 in 10.0 mi WSW 3.5 mph - N/A   Clear
10:54 PM 73.9 °F - 64.0 °F 71% 30.01 in 10.0 mi Calm Calm - N/A   Clear
11:54 PM 73.0 °F - 63.0 °F 71% 30.00 in 10.0 mi Calm Calm - N/A   Clear